Wind_Speed
37 37 37 37 36 36 36 36 36 36 35 34 34 33 33 33 33 33 32 32 32 32 32 33 32 33 33 32 33 33 33 32 31 31 32 32 31 31 31 31 31 31 31
39 39 39 38 38 38 38 38 38 38 37 37 36 36 35 35 35 35 35 35 35 34 34 34 34 35 34 35 35 34 34 33 33 33 32 32 32 32 33 33 33 32 32
41 41 40 40 40 39 39 39 39 40 39 39 38 38 38 38 38 38 38 38 37 37 37 37 37 37 36 36 35 34 35 35 35 34 34 34 33 33 34 34 34 34 33
42 42 42 42 42 41 41 41 41 41 41 40 40 40 40 40 40 40 40 40 39 39 39 39 39 39 38 37 36 36 36 37 36 36 36 35 35 35 35 35 35 35 35
43 43 43 43 44 44 43 43 43 43 42 42 42 42 42 42 43 42 42 42 42 41 41 41 40 40 40 39 38 38 38 39 38 38 38 38 38 37 37 36 36 37 37
46 45 45 45 45 45 45 45 45 45 44 44 44 43 43 44 44 44 44 44 44 43 43 43 42 42 41 40 41 40 40 40 40 40 39 39 39 39 38 38 38 38 39
48 48 48 49 48 48 48 47 47 46 46 46 46 45 45 45 44 45 45 44 44 45 44 44 44 44 43 43 43 43 42 42 41 41 40 41 41 41 41 40 40 40 41
50 51 51 51 51 50 50 49 50 49 47 47 47 47 47 46 45 45 45 44 45 45 44 44 44 44 44 44 44 43 43 42 42 42 42 42 42 42 42 42 42 42 42
50 51 51 51 51 52 51 51 51 51 49 49 49 49 49 48 46 45 44 44 44 45 45 44 44 44 45 45 45 44 44 43 44 44 43 43 43 44 44 43 43 43 42
49 49 49 50 51 52 52 52 51 51 51 51 51 50 50 50 49 47 46 46 45 45 45 46 45 45 45 46 46 45 45 45 45 44 44 44 44 45 45 45 44 44 44
47 47 48 49 49 50 51 51 52 51 50 50 51 50 50 50 50 50 48 47 47 47 46 47 47 47 47 47 46 45 45 46 46 47 47 46 45 45 45 46 46 47 47
45 46 46 47 47 48 49 50 51 51 50 51 51 51 51 50 50 49 48 48 48 48 48 48 48 48 48 48 47 47 47 48 48 48 47 47 47 47 47 47 47 48 48
42 43 44 44 44 45 46 47 49 50 50 50 50 50 51 51 51 50 50 50 50 50 50 50 50 49 49 48 49 48 49 49 48 48 48 48 49 49 49 49 49 49 49
38 39 40 40 40 40 41 44 46 47 47 48 48 49 50 50 51 51 52 52 52 51 50 51 50 50 49 49 49 49 48 49 48 49 50 49 50 50 50 51 51 50 50
36 37 36 37 38 39 40 40 41 43 45 45 46 46 47 48 49 50 51 53 53 52 51 49 49 49 50 51 51 51 51 51 50 50 50 51 51 51 51 52 52 51 51
34 34 34 36 36 37 37 38 40 41 42 43 44 44 46 47 47 49 50 50 52 53 52 49 49 49 50 51 52 52 52 51 51 51 51 51 52 53 53 53 53 52 53
31 32 33 34 35 35 36 37 37 38 39 40 41 42 43 45 46 47 47 48 48 49 49 49 49 50 51 52 52 52 52 51 51 51 51 51 52 52 53 54 53 53 53
30 31 32 32 33 33 33 33 34 35 36 37 40 41 42 44 45 45 46 47 47 48 49 48 49 50 50 49 50 51 51 51 51 52 52 51 51 52 53 54 53 53 53
27 28 29 29 29 29 30 30 31 33 35 37 38 40 41 41 42 43 45 46 46 47 47 47 46 47 47 48 49 50 50 50 51 52 53 53 53 53 53 54 53 53 52
23 24 25 26 27 27 28 29 30 32 34 35 37 38 39 40 41 42 43 44 45 46 47 47 47 47 48 49 50 50 50 51 52 53 54 54 54 54 54 54 52 52 52
21 22 23 23 24 25 27 29 31 32 33 35 36 38 39 39 41 42 43 44 45 46 47 48 49 49 49 50 50 50 50 51 52 53 53 54 54 54 54 54 53 52 50
19 20 20 22 24 25 27 28 30 31 33 34 35 36 38 39 41 42 43 44 44 45 47 48 49 49 49 49 49 50 50 50 51 51 53 53 53 53 53 53 53 52 50
20 22 22 23 24 25 27 28 29 30 32 33 34 36 37 39 39 41 42 42 43 44 45 46 47 48 49 49 50 50 51 51 52 52 53 52 53 52 52 52 52 51 49
21 22 23 24 25 27 28 29 30 31 32 33 34 36 37 38 40 41 41 42 42 44 45 46 47 47 48 48 49 50 51 52 53 54 53 52 51 51 50 50 50 50 49
22 23 24 25 26 27 28 29 30 31 32 33 34 35 36 38 40 40 41 41 42 42 43 44 45 46 47 48 50 51 52 53 53 53 52 51 50 49 48 48 48 48 47
22 23 24 26 27 28 29 30 30 31 32 33 35 35 36 37 38 39 40 40 41 41 43 43 45 46 47 49 51 52 53 53 52 50 49 49 48 48 47 46 47 47 47
Wind_Direction
260 260 261 261 262 262 263 263 263 264 265 266 266 267 268 269 270 271 272 274 275 275 275 275 277 279 279 280 281 281 281 281 281 282 282 283 284 285 286 287 289 290 293
260 261 261 261 261 262 262 262 263 264 265 266 266 267 267 269 270 271 272 273 274 274 275 276 277 279 279 278 279 281 280 280 280 280 281 281 283 283 285 286 288 288 290
260 260 260 261 261 262 262 262 263 264 264 265 266 266 267 269 270 271 271 272 273 274 275 275 277 278 279 279 279 280 280 280 279 279 279 280 281 282 284 285 286 287 288
261 261 261 260 260 261 261 262 263 263 264 265 265 266 267 269 270 270 271 272 273 274 274 274 275 277 278 278 278 279 279 280 279 278 278 278 279 281 283 284 285 286 287
262 262 262 261 260 261 261 262 263 263 264 265 267 268 268 269 269 270 270 271 272 273 273 274 275 276 277 278 278 278 278 279 279 278 278 278 279 280 281 282 283 284 286
262 262 262 261 261 261 261 262 263 263 263 265 267 268 269 269 269 269 270 271 272 272 272 273 274 275 276 277 277 277 278 278 278 278 278 278 278 280 281 281 282 284 285
262 262 262 262 261 260 261 262 262 263 263 264 266 267 268 268 268 269 270 270 271 272 273 273 274 275 276 277 277 278 277 277 278 277 276 277 278 279 280 280 281 283 284
262 262 262 262 261 260 260 261 261 263 264 264 266 267 268 268 268 269 268 270 271 272 273 273 273 274 276 276 277 278 278 277 276 276 276 277 277 277 278 280 281 281 282
261 261 261 261 261 261 260 260 261 262 264 265 266 266 267 268 268 268 269 269 271 273 273 274 274 275 276 277 277 276 275 276 276 275 277 277 277 278 278 278 279 280 282
261 260 261 261 261 261 260 260 260 261 262 263 264 265 267 266 267 268 269 269 270 272 273 273 275 276 276 275 275 275 274 274 275 275 275 277 278 278 279 280 280 279 280
262 261 262 262 262 262 260 259 260 261 262 263 263 264 266 267 268 268 267 267 268 270 271 273 275 276 275 274 275 274 273 274 274 275 276 276 277 279 280 280 280 280 280
262 262 263 264 263 263 261 259 259 259 261 262 263 264 265 267 268 267 267 267 268 269 271 274 275 277 276 275 275 275 275 275 275 276 276 276 277 278 279 280 281 280 280
265 265 264 264 264 263 262 259 259 259 259 261 263 264 265 265 266 267 267 268 268 268 270 273 275 275 276 276 275 276 276 276 275 275 275 276 277 278 279 280 280 280 280
266 266 266 264 264 264 263 261 259 259 259 261 263 263 264 265 265 267 268 268 269 269 271 272 272 274 273 274 274 275 275 275 274 274 275 276 277 278 279 279 280 279 279
267 267 266 265 266 266 265 262 261 260 261 262 263 265 265 266 267 267 268 268 269 269 270 272 273 273 273 273 274 274 275 276 276 277 277 277 278 278 279 280 280 279 279
268 267 266 266 267 267 266 263 263 263 262 263 264 265 265 266 268 269 269 269 270 270 270 271 273 273 274 274 275 275 276 276 276 277 277 278 278 278 278 279 279 279 279
270 268 269 268 268 268 267 267 265 265 264 264 265 267 268 270 270 270 270 271 272 272 273 274 274 274 275 276 275 274 275 276 277 277 277 278 278 278 278 278 279 279 279
271 271 271 270 269 267 266 266 267 267 267 268 268 269 270 271 270 270 271 272 273 273 274 275 276 276 276 276 275 275 275 276 277 278 278 278 278 278 278 279 279 279 279
274 273 273 272 271 270 269 268 270 270 271 271 272 273 273 273 273 273 273 274 273 273 274 275 277 276 277 277 277 277 276 277 277 277 278 279 280 279 279 279 279 279 280
278 277 276 276 275 274 275 274 274 274 274 274 273 273 273 274 275 274 275 275 274 273 274 276 278 278 278 278 278 278 278 278 279 279 280 280 281 280 280 280 280 281 280
281 281 280 281 280 280 280 279 278 278 278 277 276 276 276 276 277 277 277 277 276 275 276 276 277 277 277 279 280 279 279 279 279 280 280 281 281 281 281 281 280 281 280
285 286 285 286 287 285 285 284 283 281 281 282 281 279 279 279 280 280 281 280 279 278 278 278 278 278 279 280 280 279 280 280 280 281 281 281 282 282 282 281 280 279 278
291 290 290 291 291 291 290 290 289 287 285 284 283 282 281 282 282 283 283 283 282 282 281 281 280 280 280 279 279 280 281 281 282 281 282 282 282 281 281 280 279 278 278
296 295 293 293 292 292 293 293 292 291 290 288 287 286 285 284 284 286 285 285 285 285 285 284 283 282 281 281 281 281 282 282 283 283 283 282 281 281 280 280 279 278 277
296 296 296 295 295 295 295 295 295 294 293 292 291 292 290 288 287 287 287 288 288 288 288 287 285 284 283 283 283 283 283 284 284 283 283 283 281 281 280 279 279 278 277
297 297 296 297 297 298 298 297 296 296 296 295 293 293 293 293 292 291 290 291 291 290 290 289 288 286 286 285 285 285 285 285 285 284 283 283 282 281 279 278 279 278 277
Height
5811 5812 5813 5814 5815 5816 5817 5818 5819 5820 5821 5822 5822 5823 5824 5824 5825 5825 5825 5825 5825 5825 5825 5825 5824 5824 5824 5823 5822 5821 5821 5820 5819 5818 5818 5817 5816 5815 5814 5813 5812 5811 5809
5802 5804 5805 5806 5807 5808 5809 5811 5811 5812 5813 5814 5815 5815 5816 5817 5817 5818 5818 5818 5818 5818 5818 5818 5817 5817 5816 5816 5815 5814 5813 5813 5812 5811 5810 5809 5809 5808 5807 5806 5805 5804 5802
5794 5795 5796 5798 5799 5800 5801 5802 5803 5804 5805 5806 5807 5807 5808 5809 5809 5809 5810 5810 5810 5810 5810 5810 5809 5809 5809 5808 5807 5807 5806 5805 5804 5803 5803 5802 5801 5800 5800 5799 5797 5796 5795
5784 5786 5787 5789 5790 5791 5792 5793 5794 5795 5796 5797 5798 5799 5799 5800 5800 5801 5801 5801 5801 5801 5801 5801 5801 5801 5800 5800 5799 5798 5798 5797 5796 5795 5795 5794 5793 5792 5792 5791 5790 5789 5787
5775 5776 5778 5779 5780 5781 5783 5784 5785 5786 5787 5788 5788 5790 5790 5791 5791 5791 5792 5792 5792 5792 5792 5792 5792 5792 5792 5791 5791 5790 5789 5788 5787 5787 5786 5786 5785 5784 5783 5782 5781 5780 5779
5765 5766 5767 5769 5770 5771 5773 5774 5775 5776 5777 5778 5778 5780 5780 5781 5781 5782 5782 5783 5783 5783 5783 5783 5783 5783 5782 5782 5781 5780 5780 5779 5778 5777 5777 5776 5776 5775 5774 5773 5772 5771 5770
5754 5755 5756 5758 5759 5761 5762 5763 5764 5765 5767 5767 5768 5769 5770 5770 5771 5772 5772 5773 5773 5773 5773 5773 5773 5772 5772 5772 5771 5771 5770 5769 5768 5767 5767 5767 5766 5765 5765 5764 5763 5762 5761
5742 5743 5744 5746 5747 5749 5751 5752 5753 5754 5756 5756 5757 5758 5759 5761 5761 5762 5762 5762 5763 5763 5763 5763 5762 5762 5762 5761 5761 5760 5759 5759 5758 5757 5756 5756 5756 5755 5755 5754 5753 5752 5751
5729 5731 5732 5733 5734 5736 5738 5740 5741 5743 5744 5745 5746 5747 5748 5750 5751 5752 5752 5752 5753 5753 5753 5752 5752 5751 5751 5751 5750 5749 5749 5748 5748 5747 5746 5745 5745 5745 5744 5743 5742 5741 5740
5717 5718 5720 5721 5723 5724 5726 5728 5729 5731 5732 5733 5734 5735 5737 5738 5739 5741 5742 5742 5742 5742 5742 5742 5741 5740 5740 5739 5738 5738 5737 5737 5736 5736 5735 5735 5734 5733 5733 5732 5731 5730 5729
5705 5707 5708 5709 5711 5712 5714 5715 5717 5719 5720 5721 5722 5724 5724 5725 5727 5728 5730 5731 5731 5731 5731 5730 5730 5729 5728 5727 5727 5726 5726 5725 5725 5724 5724 5723 5723 5722 5721 5720 5719 5718 5717
5695 5696 5697 5698 5699 5700 5702 5703 5705 5707 5708 5709 5710 5712 5713 5714 5715 5716 5718 5719 5720 5720 5719 5718 5718 5717 5716 5715 5715 5714 5714 5713 5713 5712 5712 5711 5711 5710 5709 5708 5707 5706 5704
5685 5686 5686 5687 5688 5689 5690 5691 5693 5694 5696 5697 5699 5700 5701 5703 5704 5704 5705 5706 5707 5708 5707 5707 5705 5705 5704 5703 5702 5702 5701 5700 5700 5699 5699 5699 5698 5698 5697 5696 5694 5693 5691
5676 5676 5677 5677 5678 5678 5679 5680 5681 5682 5684 5686 5687 5688 5689 5690 5691 5691 5692 5693 5694 5695 5695 5695 5693 5692 5691 5690 5690 5689 5688 5688 5687 5686 5686 5686 5685 5684 5683 5682 5681 5679 5678
5668 5668 5668 5668 5669 5669 5669 5670 5671 5672 5673 5674 5676 5677 5677 5678 5678 5679 5679 5680 5680 5681 5682 5683 5681 5680 5678 5677 5677 5676 5676 5675 5674 5674 5673 5672 5671 5670 5669 5668 5666 5665 5663
5660 5660 5660 5660 5660 5660 5660 5661 5661 5662 5663 5664 5665 5666 5666 5667 5667 5667 5667 5667 5666 5667 5668 5670 5668 5666 5665 5664 5663 5663 5662 5662 5661 5660 5659 5658 5657 5656 5654 5653 5651 5650 5648
5652 5652 5652 5652 5652 5652 5652 5652 5652 5653 5654 5654 5655 5655 5656 5656 5655 5655 5654 5654 5653 5653 5653 5655 5654 5653 5651 5650 5649 5648 5648 5647 5646 5645 5644 5643 5642 5641 5639 5637 5636 5634 5632
5645 5645 5644 5644 5644 5644 5644 5644 5644 5645 5645 5645 5645 5645 5645 5644 5644 5643 5642 5642 5641 5641 5640 5641 5641 5639 5638 5636 5635 5634 5633 5633 5632 5631 5630 5629 5627 5625 5624 5622 5619 5617 5615
5638 5637 5637 5637 5637 5637 5636 5636 5637 5636 5636 5636 5636 5635 5634 5633 5632 5631 5630 5630 5629 5628 5627 5627 5627 5625 5624 5622 5621 5620 5619 5618 5617 5616 5615 5613 5611 5609 5607 5605 5603 5601 5598
5632 5631 5631 5630 5630 5630 5630 5629 5629 5628 5628 5627 5626 5625 5624 5623 5621 5620 5619 5618 5616 5615 5614 5613 5613 5612 5610 5609 5607 5606 5605 5604 5602 5600 5599 5597 5595 5592 5590 5588 5586 5584 5581
5626 5626 5625 5624 5624 5623 5623 5622 5621 5620 5619 5618 5617 5615 5614 5613 5611 5609 5607 5606 5604 5602 5601 5600 5599 5598 5596 5595 5593 5592 5590 5589 5587 5584 5583 5581 5579 5576 5573 5570 5568 5566 5565
5622 5621 5620 5619 5618 5617 5615 5614 5613 5611 5610 5608 5607 5605 5604 5602 5600 5598 5596 5593 5591 5589 5587 5586 5585 5583 5582 5581 5579 5577 5576 5574 5573 5571 5567 5565 5561 5559 5556 5554 5552 5550 5549
5617 5616 5615 5613 5612 5611 5609 5607 5604 5603 5601 5599 5597 5595 5593 5591 5589 5586 5583 5581 5578 5576 5574 5572 5570 5569 5568 5566 5565 5563 5560 5558 5556 5554 5550 5548 5545 5543 5540 5537 5536 5534 5533
5612 5610 5609 5607 5606 5604 5602 5599 5597 5594 5592 5590 5587 5585 5583 5580 5578 5575 5572 5569 5566 5564 5561 5559 5557 5555 5553 5551 5549 5547 5544 5542 5540 5537 5533 5532 5529 5527 5525 5521 5519 5518 5517
5606 5605 5603 5601 5599 5597 5594 5591 5589 5586 5583 5580 5578 5575 5572 5569 5566 5563 5560 5558 5555 5552 5548 5545 5543 5540 5538 5536 5533 5531 5528 5526 5524 5521 5517 5515 5514 5512 5510 5507 5504 5502 5501
5600 5599 5597 5594 5592 5589 5586 5583 5580 5577 5574 5571 5568 5565 5562 5559 5555 5551 5549 5546 5543 5540 5537 5533 5530 5527 5524 5521 5518 5515 5512 5509 5507 5505 5502 5500 5498 5495 5495 5494 5490 5487 5486